| time (UTC) | temp F | wind direction | speed knots | gust knots | rain 1hr in | rain 24hr in | rain mn in | humidity % | barometer mb |
| 20260506091556 | 50 | 164 | 7.8 | 12.2 | 0.00 | 0.00 | 0.00 | 88 | 1009.0 |
| 20260506090055 | 50 | 173 | 7.8 | 13.0 | 0.00 | 0.00 | 0.00 | 88 | 1008.9 |
| 20260506084607 | 50 | 165 | 7.0 | 11.3 | 0.00 | 0.00 | 0.00 | 88 | 1008.9 |
| 20260506083051 | 49 | 160 | 5.2 | 8.7 | 0.00 | 0.00 | 0.00 | 88 | 1008.9 |
| 20260506081556 | 49 | 167 | 6.1 | 9.6 | 0.00 | 0.00 | 0.00 | 88 | 1008.8 |
| 20260506073051 | 50 | 173 | 9.6 | 13.9 | 0.00 | 0.00 | 0.00 | 87 | 1008.7 |
| 20260506071550 | 50 | 175 | 8.7 | 13.9 | 0.00 | 0.00 | 0.00 | 86 | 1008.4 |
| 20260506044653 | 50 | 164 | 9.6 | 13.9 | 0.00 | 0.00 | 0.00 | 85 | 1008.5 |
| 20260506043047 | 50 | 186 | 7.0 | 12.2 | 0.00 | 0.00 | 0.00 | 85 | 1008.7 |
| 20260506041559 | 50 | 146 | 10.4 | 13.0 | 0.00 | 0.00 | 0.00 | 85 | 1008.0 |
| 20260506040050 | 50 | 175 | 8.7 | 15.6 | 0.00 | 0.00 | 0.00 | 85 | 1008.3 |
| 20260506034621 | 51 | 173 | 9.6 | 14.8 | 0.00 | 0.00 | 0.00 | 85 | 1008.2 |
| 20260506033057 | 51 | 174 | 10.4 | 15.6 | 0.00 | 0.00 | 0.00 | 85 | 1007.8 |
| 20260506031552 | 51 | 176 | 9.6 | 14.8 | 0.00 | 0.00 | 0.00 | 85 | 1008.1 |
| 20260506030052 | 51 | 178 | 7.8 | 10.4 | 0.00 | 0.00 | 0.00 | 84 | 1008.2 |
| 20260506024743 | 51 | 167 | 7.0 | 12.2 | 0.00 | 0.00 | 0.00 | 83 | 1008.3 |
| 20260505213052 | 55 | 178 | 16.5 | 25.2 | 0.00 | 0.00 | 0.00 | 79 | 1004.5 |
| 20260505211600 | 55 | 173 | 17.4 | 24.3 | 0.00 | 0.00 | 0.00 | 78 | 1004.4 |
| 20260505210050 | 54 | 161 | 15.6 | 20.9 | 0.00 | 0.00 | 0.00 | 80 | 1004.4 |
| 20260505204600 | 54 | 165 | 14.8 | 20.9 | 0.00 | 0.00 | 0.00 | 80 | 1004.5 |
| 20260505203049 | 53 | 165 | 14.8 | 20.9 | 0.00 | 0.00 | 0.00 | 81 | 1004.4 |
| 20260505201551 | 54 | 167 | 15.6 | 23.5 | 0.00 | 0.00 | 0.00 | 80 | 1004.7 |
| 20260505200049 | 54 | 192 | 13.9 | 23.5 | 0.00 | 0.00 | 0.00 | 80 | 1004.6 |
| 20260505194549 | 53 | 169 | 13.9 | 22.6 | 0.00 | 0.00 | 0.00 | 81 | 1004.9 |
| 20260505193049 | 54 | 186 | 13.9 | 20.9 | 0.00 | 0.00 | 0.00 | 82 | 1005.3 |
| 20260505191555 | 53 | 194 | 14.8 | 21.7 | 0.00 | 0.00 | 0.00 | 83 | 1005.6 |
| 20260505190048 | 53 | 172 | 13.0 | 16.5 | 0.00 | 0.00 | 0.00 | 82 | 1005.6 |
| 20260505184548 | 53 | 180 | 11.3 | 18.2 | 0.00 | 0.00 | 0.00 | 83 | 1005.8 |
| 20260505183048 | 53 | 179 | 10.4 | 15.6 | 0.00 | 0.00 | 0.00 | 82 | 1006.0 |
| 20260505182049 | 54 | 180 | 12.2 | 24.3 | 0.00 | 0.00 | 0.00 | 81 | 1006.0 |
| 20260505124550 | 49 | 171 | 9.6 | 12.2 | 0.00 | 0.00 | 0.00 | 86 | 1008.3 |
| 20260505123107 | 49 | 171 | 8.7 | 12.2 | 0.00 | 0.00 | 0.00 | 86 | 1008.1 |
| 20260505121546 | 49 | 171 | 8.7 | 13.9 | 0.00 | 0.00 | 0.00 | 86 | 1008.3 |
| 20260505120051 | 49 | 173 | 9.6 | 13.0 | 0.00 | 0.00 | 0.00 | 86 | 1008.4 |